GW2254 Weather Reports


time (UTC)temp
C
wind
direction
speed
KPH
gust
KPH
rain 1hr
cm
rain 24hr
cm
rain mn
cm
humidity
%
barometer
mb
20260505095549 15 184 1.6 11.3 0.00 0.00 0.00 66 1014.8
20260505095047 15 193 4.8 14.5 0.00 0.00 0.00 66 1014.6
20260505094548 15 202 3.2 14.5 0.00 0.00 0.00 66 1014.6
20260505094047 15 360 1.6 12.9 0.00 0.00 0.00 66 1014.7
20260505093547 15 360 4.8 12.9 0.00 0.00 0.00 66 1014.6
20260505093057 15 212 3.2 9.7 0.00 0.00 0.00 66 1014.6
20260505092546 15 360 0.0 9.7 0.00 0.00 0.00 66 1014.6
20260505092044 15 233 0.0 8.0 0.00 0.00 0.00 65 1014.7
20260505091543 15 189 3.2 8.0 0.00 0.00 0.00 65 1014.7
20260505091044 15 192 1.6 8.0 0.00 0.00 0.00 65 1014.6
20260505090542 15 203 0.0 8.0 0.00 0.00 0.00 65 1014.5
20260505090042 15 203 0.0 8.0 0.00 0.00 0.00 65 1014.5
20260505085542 15 201 3.2 8.0 0.00 0.00 0.00 64 1014.4
20260505085041 16 181 1.6 9.7 0.00 0.00 0.00 64 1014.5
20260505084541 16 187 3.2 14.5 0.00 0.00 0.00 64 1014.4
20260505084039 16 196 6.4 14.5 0.00 0.00 0.00 64 1014.4
20260505083539 16 219 1.6 9.7 0.00 0.00 0.00 64 1014.5
20260505083041 16 175 3.2 11.3 0.00 0.00 0.00 64 1014.4
20260505082539 16 183 4.8 11.3 0.00 0.00 0.00 64 1014.4
20260505082039 16 190 1.6 9.7 0.00 0.00 0.00 64 1014.5
20260505081544 16 196 0.0 11.3 0.00 0.00 0.00 64 1014.5
20260505081038 16 174 3.2 11.3 0.00 0.00 0.00 63 1014.5
20260505080540 16 187 1.6 14.5 0.00 0.00 0.00 63 1014.4
20260505080047 16 153 3.2 14.5 0.00 0.00 0.00 63 1014.3
20260505075538 16 171 3.2 12.9 0.00 0.00 0.00 63 1014.2
20260505075035 16 196 3.2 11.3 0.00 0.00 0.00 63 1014.2
20260505074535 16 199 1.6 14.5 0.00 0.00 0.00 63 1014.2
20260505074035 16 163 4.8 12.9 0.00 0.00 0.00 63 1014.2
20260505073534 16 180 3.2 16.1 0.00 0.00 0.00 63 1014.1
20260505073038 16 195 6.4 16.1 0.00 0.00 0.00 63 1013.9
20260505072532 16 197 4.8 12.9 0.00 0.00 0.00 62 1013.9
20260505072032 16 187 3.2 12.9 0.00 0.00 0.00 62 1013.9
20260505071532 16 196 4.8 11.3 0.00 0.00 0.00 62 1013.9
20260505071032 16 209 3.2 9.7 0.00 0.00 0.00 62 1013.9
20260505070531 16 215 1.6 12.9 0.00 0.00 0.00 62 1013.9
20260505070030 16 221 3.2 16.1 0.00 0.00 0.00 62 1013.9
20260505065529 16 182 4.8 16.1 0.00 0.00 0.00 61 1013.9
20260505065027 17 205 3.2 12.9 0.00 0.00 0.00 61 1013.8
20260505064526 17 200 4.8 19.3 0.00 0.00 0.00 61 1013.7
20260505064026 17 217 6.4 19.3 0.00 0.00 0.00 61 1013.8
20260505063529 17 214 8.0 17.7 0.00 0.00 0.00 61 1013.8
20260505063025 17 197 4.8 16.1 0.00 0.00 0.00 61 1013.9
20260505062524 17 218 6.4 16.1 0.00 0.00 0.00 60 1013.9
20260505062023 17 185 3.2 14.5 0.00 0.00 0.00 60 1014.0
20260505061525 17 202 4.8 14.5 0.00 0.00 0.00 60 1014.0
20260505061021 17 210 3.2 16.1 0.00 0.00 0.00 60 1014.0
20260505060521 17 183 6.4 24.1 0.00 0.00 0.00 59 1014.0
20260505060021 17 178 6.4 24.1 0.00 0.00 0.00 59 1014.0
20260505055520 17 189 4.8 19.3 0.00 0.00 0.00 59 1014.0
20260505055019 17 204 8.0 22.5 0.00 0.00 0.00 59 1014.0
20260505054518 17 221 8.0 22.5 0.00 0.00 0.00 59 1014.0
20260505054017 17 254 8.0 19.3 0.00 0.00 0.00 59 1014.0
20260505053516 17 211 4.8 16.1 0.00 0.00 0.00 59 1014.1
20260505053030 17 240 4.8 16.1 0.00 0.00 0.00 59 1014.1
20260505052516 17 188 6.4 16.1 0.00 0.00 0.00 59 1014.1
20260505052017 17 199 8.0 19.3 0.00 0.00 0.00 59 1014.1
20260505051533 17 198 4.8 19.3 0.00 0.00 0.00 59 1014.1
20260505051014 17 194 4.8 16.1 0.00 0.00 0.00 59 1014.1
20260505050513 17 198 6.4 17.7 0.00 0.00 0.00 59 1014.2
20260505041509 18 234 11.3 19.3 0.00 0.00 0.00 58 1014.2
20260505041005 18 263 1.6 17.7 0.00 0.00 0.00 58 1014.2
20260505040508 18 211 6.4 14.5 0.00 0.00 0.00 58 1014.1
20260505040004 18 198 3.2 14.5 0.00 0.00 0.00 58 1014.0
20260505035505 18 215 1.6 14.5 0.00 0.00 0.00 57 1013.9
20260505035002 18 204 4.8 17.7 0.00 0.00 0.00 57 1014.0
20260505034503 18 225 9.7 17.7 0.00 0.00 0.00 57 1014.0
20260505034006 18 198 8.0 12.9 0.00 0.00 0.00 56 1013.9
20260505033502 18 223 4.8 14.5 0.00 0.00 0.00 56 1013.9
20260505033004 18 207 6.4 14.5 0.00 0.00 0.00 55 1013.9
20260505032502 18 229 8.0 16.1 0.00 0.00 0.00 55 1013.9
20260505032002 18 190 4.8 17.7 0.00 0.00 0.00 55 1013.8
20260505031501 18 224 6.4 22.5 0.00 0.00 0.00 54 1013.8
20260505031001 18 208 9.7 22.5 0.00 0.00 0.00 54 1013.8
20260505030503 18 211 4.8 14.5 0.00 0.00 0.00 53 1013.8
20260505025601 18 227 8.0 16.1 0.00 0.00 0.00 52 1013.7
20260505025102 18 213 4.8 17.7 0.00 0.00 0.00 51 1013.6
20260505024559 18 122 4.8 11.3 0.00 0.00 0.00 50 1013.6
20260505024059 17 232 4.8 17.7 0.00 0.00 0.00 50 1013.6
20260505023559 17 360 3.2 6.4 0.00 0.00 0.00 51 1013.5
20260505023105 17 204 0.0 9.7 0.00 0.00 0.00 52 1013.4
20260505022559 17 198 3.2 9.7 0.00 0.00 0.00 50 1013.4
20260505022059 17 196 0.0 4.8 0.00 0.00 0.00 52 1013.3
20260505021600 17 196 3.2 4.8 0.00 0.00 0.00 51 1013.3
20260505021059 17 201 0.0 4.8 0.00 0.00 0.00 51 1013.1
20260505020559 17 201 0.0 3.2 0.00 0.00 0.00 52 1013.1
20260505020059 17 201 0.0 4.8 0.00 0.00 0.00 51 1013.2
20260505015559 17 200 0.0 8.0 0.00 0.00 0.00 53 1013.2
20260505015058 17 207 1.6 8.0 0.00 0.00 0.00 51 1013.2
20260505014606 17 195 0.0 4.8 0.00 0.00 0.00 52 1013.2
20260505014058 17 195 0.0 4.8 0.00 0.00 0.00 51 1013.1
20260505013559 17 196 0.0 1.6 0.00 0.00 0.00 52 1013.1
20260505013059 17 196 0.0 0.0 0.00 0.00 0.00 53 1013.1
20260505012557 18 196 0.0 0.0 0.00 0.00 0.00 54 1013.1
20260505012057 18 360 0.0 1.6 0.00 0.00 0.00 52 1013.0
20260505011558 18 196 0.0 1.6 0.00 0.00 0.00 50 1013.0
20260505011057 18 196 0.0 0.0 0.00 0.00 0.00 49 1012.9
20260505010559 18 196 0.0 0.0 0.00 0.00 0.00 48 1013.0
20260505010116 18 196 0.0 0.0 0.00 0.00 0.00 49 1013.0
20260505005557 18 196 0.0 0.0 0.00 0.00 0.00 49 1013.0
20260505005057 19 196 0.0 0.0 0.00 0.00 0.00 48 1013.0
20260505004556 19 196 0.0 0.0 0.00 0.00 0.00 46 1012.9
20260505004056 20 196 0.0 0.0 0.00 0.00 0.00 46 1012.9
20260505003555 20 196 0.0 0.0 0.00 0.00 0.00 45 1012.9
20260505003058 20 196 0.0 0.0 0.00 0.00 0.00 44 1012.9
20260505002555 21 360 0.0 0.0 0.00 0.00 0.00 43 1012.8
20260505002056 21 360 0.0 0.0 0.00 0.00 0.00 42 1012.8
20260505001557 21 196 0.0 0.0 0.00 0.00 0.00 41 1012.7
20260505001057 21 196 0.0 1.6 0.00 0.00 0.00 40 1012.7
20260505000555 21 196 0.0 3.2 0.00 0.00 0.00 40 1012.5
20260505000055 22 209 0.0 3.2 0.00 0.00 0.00 39 1012.5
20260504235555 22 234 0.0 1.6 0.00 0.00 0.00 39 1012.5
20260504235054 22 184 0.0 4.8 0.00 0.00 0.00 38 1012.5
20260504234554 22 184 0.0 4.8 0.00 0.00 0.00 38 1012.6
20260504234054 22 182 0.0 8.0 0.00 0.00 0.00 39 1012.6
20260504233554 22 178 0.0 8.0 0.00 0.00 0.00 38 1012.5
20260504233056 22 188 1.6 8.0 0.00 0.00 0.00 37 1012.5
20260504232553 23 204 0.0 8.0 0.00 0.00 0.00 36 1012.4
20260504232053 23 193 3.2 8.0 0.00 0.00 0.00 36 1012.4
20260504231557 23 212 3.2 9.7 0.00 0.00 0.00 36 1012.3
20260504231052 23 200 3.2 9.7 0.00 0.00 0.00 36 1012.3
20260504230554 23 195 0.0 9.7 0.00 0.00 0.00 36 1012.3
20260504230052 23 208 3.2 8.0 0.00 0.00 0.00 35 1012.3
20260504225552 23 214 1.6 9.7 0.00 0.00 0.00 35 1012.2
20260504225055 23 188 3.2 17.7 0.00 0.00 0.00 34 1012.1
20260504224551 23 231 8.0 17.7 0.00 0.00 0.00 34 1012.1
20260504224051 23 211 4.8 11.3 0.00 0.00 0.00 34 1012.1
20260504223551 23 188 4.8 14.5 0.00 0.00 0.00 34 1012.1
20260504223100 23 127 4.8 9.7 0.00 0.00 0.00 33 1012.2
20260504222555 24 220 3.2 11.3 0.00 0.00 0.00 33 1012.1
20260504222050 24 190 1.6 16.1 0.00 0.00 0.00 33 1012.2
20260504221602 24 214 3.2 12.9 0.00 0.00 0.00 32 1012.1
20260504221049 24 226 0.0 14.5 0.00 0.00 0.00 32 1012.1
20260504220549 24 219 6.4 14.5 0.00 0.00 0.00 32 1012.2
20260504220049 24 240 3.2 22.5 0.00 0.00 0.00 34 1012.2
20260504215548 24 223 8.0 22.5 0.00 0.00 0.00 30 1012.1
20260504215050 24 248 3.2 14.5 0.00 0.00 0.00 31 1012.1
20260504214554 25 192 4.8 16.1 0.00 0.00 0.00 32 1012.1
20260504214048 25 182 6.4 17.7 0.00 0.00 0.00 31 1012.1
20260504213547 25 202 9.7 17.7 0.00 0.00 0.00 29 1012.1
20260504213100 25 196 4.8 12.9 0.00 0.00 0.00 30 1012.1
20260504212548 25 165 1.6 12.9 0.00 0.00 0.00 32 1012.2
20260504212048 25 195 6.4 14.5 0.00 0.00 0.00 30 1012.2
20260504211550 25 238 1.6 14.5 0.00 0.00 0.00 31 1012.1
20260504211047 25 207 3.2 22.5 0.00 0.00 0.00 30 1012.2
20260504210547 25 194 8.0 22.5 0.00 0.00 0.00 30 1012.1
20260504210047 25 200 6.4 14.5 0.00 0.00 0.00 30 1012.2
20260504205547 25 243 1.6 17.7 0.00 0.00 0.00 31 1012.2
20260504205045 25 189 1.6 19.3 0.00 0.00 0.00 30 1012.2
20260504204550 25 197 4.8 14.5 0.00 0.00 0.00 29 1012.2
20260504204047 25 186 6.4 16.1 0.00 0.00 0.00 29 1012.1
20260504203545 26 194 9.7 16.1 0.00 0.00 0.00 29 1012.2
20260504203050 26 179 8.0 14.5 0.00 0.00 0.00 28 1012.2
20260504202545 26 182 4.8 14.5 0.00 0.00 0.00 27 1012.2
20260504202044 26 215 8.0 14.5 0.00 0.00 0.00 26 1012.3
20260504201544 26 194 6.4 14.5 0.00 0.00 0.00 25 1012.3
20260504201047 27 190 4.8 14.5 0.00 0.00 0.00 26 1012.3
20260504200543 27 217 4.8 12.9 0.00 0.00 0.00 26 1012.4
20260504200042 27 355 0.0 6.4 0.00 0.00 0.00 27 1012.4
20260504195541 27 360 1.6 6.4 0.00 0.00 0.00 28 1012.6
20260504195039 26 215 1.6 4.8 0.00 0.00 0.00 27 1012.7
20260504194543 26 259 1.6 11.3 0.00 0.00 0.00 27 1012.7
20260504194037 26 188 1.6 4.8 0.00 0.00 0.00 28 1012.9
20260504193538 26 135 1.6 4.8 0.00 0.00 0.00 28 1012.9
20260504193036 25 335 0.0 12.9 0.00 0.00 0.00 28 1013.0
20260504192535 25 184 3.2 14.5 0.00 0.00 0.00 27 1013.1
20260504192037 25 189 6.4 17.7 0.00 0.00 0.00 26 1013.2
20260504191539 25 209 8.0 17.7 0.00 0.00 0.00 26 1013.3
20260504191033 25 234 4.8 17.7 0.00 0.00 0.00 26 1013.3
20260504190533 25 338 3.2 17.7 0.00 0.00 0.00 27 1013.4
20260504190033 25 217 8.0 20.9 0.00 0.00 0.00 25 1013.4
20260504185532 25 223 1.6 19.3 0.00 0.00 0.00 28 1013.6
20260504185035 25 250 4.8 17.7 0.00 0.00 0.00 25 1013.7
20260504184531 25 190 3.2 25.7 0.00 0.00 0.00 27 1013.7
20260504184033 25 205 11.3 25.7 0.00 0.00 0.00 26 1013.7
20260504183531 25 205 1.6 14.5 0.00 0.00 0.00 27 1013.7
20260504183030 25 219 6.4 20.9 0.00 0.00 0.00 27 1013.7
20260504182528 25 179 8.0 16.1 0.00 0.00 0.00 27 1013.9
20260504182028 25 190 1.6 17.7 0.00 0.00 0.00 31 1014.0
20260504181527 25 241 3.2 17.7 0.00 0.00 0.00 28 1013.9
20260504181029 25 178 0.0 9.7 0.00 0.00 0.00 29 1014.1
20260504180527 25 200 1.6 8.0 0.00 0.00 0.00 29 1014.1
20260504180026 25 187 0.0 6.4 0.00 0.00 0.00 30 1014.1
20260504175528 25 19 0.0 4.8 0.00 0.00 0.00 28 1014.2
20260504175025 25 19 1.6 4.8 0.00 0.00 0.00 27 1014.3
20260504174524 25 288 0.0 3.2 0.00 0.00 0.00 27 1014.3
20260504174024 25 288 1.6 4.8 0.00 0.00 0.00 28 1014.3
20260504173524 25 267 1.6 11.3 0.00 0.00 0.00 27 1014.3
20260504173023 25 327 3.2 11.3 0.00 0.00 0.00 27 1014.3
20260504172522 25 185 1.6 8.0 0.00 0.00 0.00 27 1014.4
20260504172021 25 224 3.2 19.3 0.00 0.00 0.00 27 1014.5
20260504171529 25 184 3.2 19.3 0.00 0.00 0.00 29 1014.5
20260504171020 25 249 6.4 17.7 0.00 0.00 0.00 25 1014.6
20260504170519 25 349 4.8 14.5 0.00 0.00 0.00 29 1014.6
20260504151056 22 223 1.6 12.9 0.00 0.00 0.00 41 1016.0
20260504150557 22 228 4.8 12.9 0.00 0.00 0.00 39 1015.9
20260504150109 21 9 0.0 12.9 0.00 0.00 0.00 41 1016.1
20260504141042 19 213 0.0 4.8 0.00 0.00 0.00 46 1016.1
20260504140541 19 325 0.0 8.0 0.00 0.00 0.00 48 1016.2
20260504130527 16 274 0.0 12.9 0.00 0.00 0.00 55 1016.5
20260504110511 9 217 0.0 0.0 0.00 0.00 0.00 71 1016.7
20260504100557 9 217 0.0 0.0 0.00 0.00 0.00 69 1016.7